Weather History for Auburn, IN

Change the Weather History Date:

Monday, February 10, 2014

  Actual Average (KFWA) Record (KFWA)
Temperature  
Mean Temperature 8 °F 27 °F  
Max Temperature 19 °F 35 °F 65 °F (1932)
Min Temperature -2 °F 19 °F -18 °F (1982)
Degree Days  
Heating Degree Days 56 38  
Month to date heating degree days 388  
Since 1 July heating degree days 3959  
Cooling Degree Days 0 0  
Month to date cooling degree days 0  
Year to date cooling degree days 0  
Moisture  
Dew Point 1 °F    
Average Humidity 73    
Maximum Humidity 85    
Minimum Humidity 54    
Precipitation  
Precipitation 0.00 in 0.07 in 1.14 in (1981)
Month to date precipitation 0.70  
Year to date precipitation 2.96  
Snow  
Snow 0.00 in 0.30 in 6.30 in (1981)
Month to date snowfall 3.1  
Since 1 July snowfall 23.8  
Snow Depth -    
Sea Level Pressure  
Sea Level Pressure 30.29 in    
Wind  
Wind Speed 5 mph (West)    
Max Wind Speed 14 mph    
Max Gust Speed -    
Visibility 8 miles    
Events Snow    
T = Trace of Precipitation, MM = Missing Value Source: NWS Daily Summary

Daily Weather History Graph

Daily Weather History Graph

Search for Another Location

Airport:

Trip Planner

Search our weather history database for the weather conditions in past years. The results will help you decide how hot, cold, wet, or windy it might be!

Date:

Astronomy

Feb. 10, 2014 Rise Set
Actual Time 7:41 AM EST 6:08 PM EST
Civil Twilight 7:12 AM EST 6:36 PM EST
Nautical Twilight 6:40 AM EST 7:09 PM EST
Astronomical Twilight 6:08 AM EST 7:41 PM EST
Moon 2:35 PM EST (2/10) 4:35 AM EST (2/10)
Length of Visible Light 11h 23m
Length of Day
10h 26m
Waxing Gibbous, 84% of the Moon is Illuminated
Feb 10
Waxing Gibbous
Feb 14
Full
Feb 22
Last Quarter
Mar 1
New
Mar 8
First Quarter

Hourly Weather History & Observations

Time (EST) Temp. Windchill Dew Point Humidity Pressure Visibility Wind Dir Wind Speed Gust Speed Precip Events Conditions
12:15 AM 10.4 °F 4.0 °F 5.0 °F 79% 30.21 in 10.0 mi WSW 3.5 mph - N/A   Clear
12:35 AM 8.6 °F 0.1 °F 5.0 °F 85% 30.22 in 7.0 mi SW 4.6 mph - N/A   Clear
12:55 AM 8.6 °F -2.6 °F 5.0 °F 85% 30.21 in 7.0 mi SW 6.9 mph - N/A   Clear
1:15 AM 6.8 °F -2.0 °F 3.2 °F 85% 30.21 in 7.0 mi West 4.6 mph - N/A   Clear
1:35 AM 5.0 °F -4.1 °F 1.4 °F 85% 30.22 in 7.0 mi West 4.6 mph - N/A   Clear
1:55 AM 3.2 °F -4.2 °F -0.4 °F 85% 30.22 in 7.0 mi West 3.5 mph - N/A   Mostly Cloudy
2:15 AM 5.0 °F -4.1 °F 1.4 °F 85% 30.22 in 7.0 mi WSW 4.6 mph - N/A   Overcast
2:35 AM 6.8 °F -3.5 °F 3.2 °F 85% 30.22 in 7.0 mi West 5.8 mph - N/A   Overcast
2:55 AM 6.8 °F -0.1 °F 1.4 °F 79% 30.23 in 7.0 mi WSW 3.5 mph - N/A   Overcast
3:15 AM 5.0 °F -4.1 °F 1.4 °F 85% 30.23 in 7.0 mi WSW 4.6 mph - N/A   Overcast
3:35 AM 5.0 °F -2.1 °F 1.4 °F 85% 30.23 in 7.0 mi West 3.5 mph - N/A   Overcast
3:55 AM 3.2 °F -4.2 °F -2.2 °F 78% 30.23 in 7.0 mi WSW 3.5 mph - N/A   Mostly Cloudy
4:15 AM 1.4 °F -6.2 °F -4.0 °F 78% 30.23 in 5.0 mi West 3.5 mph - N/A   Clear
4:35 AM 3.2 °F -4.2 °F -2.2 °F 78% 30.23 in 7.0 mi WSW 3.5 mph - N/A   Clear
4:55 AM 1.4 °F -8.3 °F -4.0 °F 78% 30.23 in 5.0 mi West 4.6 mph - N/A   Clear
5:15 AM -0.4 °F -10.4 °F -5.8 °F 78% 30.23 in 5.0 mi WSW 4.6 mph - N/A   Haze
5:35 AM -0.4 °F -8.3 °F -5.8 °F 78% 30.24 in 5.0 mi West 3.5 mph - N/A   Haze
5:55 AM -0.4 °F -10.4 °F -5.8 °F 78% 30.24 in 5.0 mi West 4.6 mph - N/A   Haze
6:15 AM -0.4 °F -10.4 °F -5.8 °F 78% 30.25 in 5.0 mi West 4.6 mph - N/A   Haze
6:35 AM -0.4 °F -10.4 °F -5.8 °F 78% 30.25 in 5.0 mi West 4.6 mph - N/A   Haze
6:55 AM -0.4 °F -8.3 °F -5.8 °F 78% 30.26 in 5.0 mi West 3.5 mph - N/A Snow Light Snow
7:15 AM -0.4 °F -10.4 °F -4.0 °F 85% 30.26 in 5.0 mi West 4.6 mph - N/A Snow Light Snow
7:35 AM -0.4 °F -8.3 °F -5.8 °F 78% 30.26 in 5.0 mi West 3.5 mph - N/A Snow Light Snow
7:55 AM -2.2 °F -12.5 °F -7.6 °F 78% 30.26 in 4.0 mi West 4.6 mph - N/A Snow Light Snow
8:15 AM 1.4 °F - -4.0 °F 78% 30.28 in 4.0 mi Calm Calm - N/A Snow Light Snow
8:35 AM 1.4 °F - -4.0 °F 78% 30.29 in 4.0 mi Calm Calm - N/A   Haze
8:55 AM 3.2 °F -6.2 °F -2.2 °F 78% 30.30 in 5.0 mi West 4.6 mph - N/A   Haze
9:15 AM 5.0 °F -4.1 °F 1.4 °F 85% 30.31 in 5.0 mi West 4.6 mph - N/A   Clear
9:35 AM 6.8 °F -3.5 °F 3.2 °F 85% 30.31 in 5.0 mi West 5.8 mph - N/A   Clear
9:55 AM 8.6 °F 0.1 °F 3.2 °F 79% 30.30 in 5.0 mi West 4.6 mph - N/A   Clear
10:15 AM 10.4 °F 2.2 °F 5.0 °F 79% 30.30 in 7.0 mi WSW 4.6 mph - N/A   Clear
10:35 AM 12.2 °F 2.9 °F 8.6 °F 85% 30.30 in 7.0 mi West 5.8 mph - N/A   Clear
10:55 AM 12.2 °F 4.3 °F 8.6 °F 85% 30.31 in 10.0 mi West 4.6 mph - N/A   Clear
11:15 AM 14.0 °F 3.9 °F 6.8 °F 73% 30.31 in 10.0 mi West 6.9 mph - N/A   Clear
11:35 AM 15.8 °F 7.2 °F 5.0 °F 62% 30.31 in 10.0 mi West 5.8 mph - N/A   Clear
11:55 AM 17.6 °F 6.4 °F 5.0 °F 58% 30.31 in 10.0 mi West 9.2 mph - N/A   Clear
12:15 PM 17.6 °F 8.2 °F 5.0 °F 58% 30.31 in 10.0 mi West 6.9 mph - N/A   Clear
12:35 PM 17.6 °F 8.2 °F 5.0 °F 58% 30.31 in 10.0 mi West 6.9 mph - N/A   Clear
12:55 PM 17.6 °F 9.3 °F 5.0 °F 58% 30.31 in 10.0 mi West 5.8 mph - N/A   Clear
1:15 PM 17.6 °F 5.7 °F 5.0 °F 58% 30.30 in 10.0 mi West 10.4 mph - N/A   Clear
1:35 PM 19.4 °F 6.0 °F 5.0 °F 54% 30.29 in 5.0 mi WNW 13.8 mph - N/A   Haze
1:55 PM 17.6 °F 5.0 °F 5.0 °F 58% 30.29 in 10.0 mi WNW 11.5 mph - N/A   Clear
2:15 PM 19.4 °F 7.9 °F 5.0 °F 54% 30.28 in 10.0 mi WNW 10.4 mph - N/A   Clear
2:35 PM 17.6 °F 5.0 °F 5.0 °F 58% 30.28 in 5.0 mi WNW 11.5 mph - N/A   Haze
2:55 PM 19.4 °F 8.6 °F 5.0 °F 54% 30.29 in 10.0 mi West 9.2 mph - N/A   Clear
3:15 PM 17.6 °F 6.4 °F 5.0 °F 58% 30.29 in 10.0 mi WNW 9.2 mph - N/A   Clear
3:35 PM 17.6 °F 7.3 °F 5.0 °F 58% 30.29 in 10.0 mi WNW 8.1 mph - N/A   Clear
3:55 PM 17.6 °F 6.4 °F 6.8 °F 63% 30.30 in 10.0 mi West 9.2 mph - N/A   Clear
4:15 PM 17.6 °F 7.3 °F 5.0 °F 58% 30.30 in 10.0 mi West 8.1 mph - N/A   Clear
4:35 PM 17.6 °F 5.7 °F 5.0 °F 58% 30.30 in 10.0 mi West 10.4 mph - N/A   Clear
4:55 PM 17.6 °F 7.3 °F 5.0 °F 58% 30.31 in 10.0 mi WNW 8.1 mph - N/A   Clear
5:15 PM 15.8 °F 4.2 °F 5.0 °F 62% 30.31 in 10.0 mi West 9.2 mph - N/A   Clear
5:35 PM 14.0 °F 2.9 °F 5.0 °F 67% 30.32 in 10.0 mi West 8.1 mph - N/A   Clear
5:55 PM 14.0 °F 3.9 °F 3.2 °F 62% 30.32 in 10.0 mi West 6.9 mph - N/A   Clear
6:15 PM 12.2 °F 0.7 °F 3.2 °F 67% 30.33 in 10.0 mi West 8.1 mph - N/A   Clear
6:35 PM 10.4 °F -0.4 °F 1.4 °F 67% 30.34 in 10.0 mi West 6.9 mph - N/A   Clear
6:55 PM 10.4 °F 0.8 °F 1.4 °F 67% 30.35 in 10.0 mi West 5.8 mph - N/A   Clear
7:15 PM 8.6 °F 2.0 °F -0.4 °F 67% 30.35 in 10.0 mi West 3.5 mph - N/A   Clear
7:35 PM 3.2 °F -7.8 °F -2.2 °F 78% 30.36 in 10.0 mi West 5.8 mph - N/A   Clear
7:55 PM 6.8 °F -3.5 °F -0.4 °F 72% 30.36 in 10.0 mi West 5.8 mph - N/A   Clear
8:15 PM 5.0 °F -4.1 °F -0.4 °F 78% 30.36 in 10.0 mi West 4.6 mph - N/A   Clear
8:35 PM 3.2 °F -7.8 °F -2.2 °F 78% 30.36 in 10.0 mi West 5.8 mph - N/A   Clear
8:55 PM 3.2 °F -7.8 °F -4.0 °F 72% 30.37 in 10.0 mi West 5.8 mph - N/A   Clear
9:15 PM 3.2 °F -6.2 °F -2.2 °F 78% 30.38 in 10.0 mi West 4.6 mph - N/A   Clear
9:35 PM 3.2 °F - -4.0 °F 72% 30.38 in 10.0 mi Calm Calm - N/A   Clear
9:55 PM 1.4 °F -6.2 °F -4.0 °F 78% 30.38 in 10.0 mi West 3.5 mph - N/A   Clear
10:15 PM 1.4 °F -8.3 °F -4.0 °F 78% 30.38 in 10.0 mi West 4.6 mph - N/A   Clear
10:35 PM 1.4 °F -8.3 °F -4.0 °F 78% 30.38 in 10.0 mi WNW 4.6 mph - N/A   Clear
10:55 PM 1.4 °F -8.3 °F -4.0 °F 78% 30.38 in 10.0 mi WNW 4.6 mph - N/A   Clear
11:15 PM -0.4 °F -12.0 °F -4.0 °F 85% 30.38 in 10.0 mi WNW 5.8 mph - N/A   Scattered Clouds
11:35 PM -0.4 °F -10.4 °F -5.8 °F 78% 30.39 in 10.0 mi WNW 4.6 mph - N/A   Mostly Cloudy
11:55 PM 1.4 °F - -4.0 °F 78% 30.39 in 10.0 mi Calm Calm - N/A   Overcast